Wind_Speed
23 22 22 22 22 22 22 23 23 22 22 22 22 21 21 21 20 20 21 21 21 21 21 21 21 22 22 22 22 22 22 22 22 22 22 23 22 22 22 22 23 23 24 24
25 25 24 24 24 23 23 24 24 23 23 23 23 23 22 21 21 21 22 23 22 22 22 22 22 22 23 23 23 24 24 24 24 24 24 24 23 23 23 24 24 25 25 25
27 27 27 26 25 24 25 25 25 24 23 24 24 23 23 23 23 23 23 24 23 22 21 22 23 23 24 24 24 24 24 24 24 25 25 24 24 24 24 25 25 26 27 27
29 29 30 27 27 27 26 26 26 26 25 25 24 23 23 23 24 23 23 23 22 22 23 24 24 24 24 24 24 25 25 25 25 25 24 24 24 25 25 26 26 27 28 28
30 30 30 28 28 27 27 27 27 27 27 26 25 24 23 24 24 24 23 23 23 22 23 24 25 25 25 25 26 26 25 25 25 25 25 25 25 25 26 26 27 28 28 28
31 31 32 29 28 28 29 28 26 26 26 25 25 25 24 25 26 25 24 24 24 24 24 25 25 25 25 26 27 26 26 26 26 26 26 25 25 26 27 27 28 29 29 29
32 31 31 30 30 29 29 27 26 26 26 26 26 25 26 26 27 26 25 25 26 25 26 26 25 25 26 27 27 27 27 26 26 26 26 26 26 26 27 28 29 30 30 30
32 32 31 30 30 29 28 27 27 28 27 27 27 27 27 26 26 25 25 25 26 26 26 26 26 26 27 27 27 26 25 26 26 26 27 27 27 27 28 29 30 30 30 30
33 32 31 30 30 30 29 29 29 29 27 27 27 27 27 26 25 26 26 26 26 26 27 27 26 27 27 27 26 25 25 25 26 26 27 27 27 28 29 29 29 29 29 29
32 32 32 32 31 31 30 30 29 29 28 28 28 28 28 27 26 26 27 27 27 27 27 27 26 27 27 26 26 25 25 25 26 26 26 27 27 28 28 27 28 28 27 27
32 33 33 33 32 31 30 30 30 30 29 29 29 28 28 27 27 27 26 27 26 26 27 26 26 26 26 26 26 25 24 24 25 25 26 26 27 27 27 27 27 27 26 26
32 33 33 32 31 31 31 31 31 31 30 29 29 28 28 28 27 27 27 27 26 25 26 26 26 26 26 26 25 24 24 24 25 25 25 26 26 26 26 26 26 27 27 27
32 32 32 32 32 31 31 31 30 29 29 29 29 28 27 26 26 26 27 25 24 24 25 26 26 26 25 25 24 24 24 25 25 25 25 25 25 25 26 26 27 28 29 28
32 32 32 31 31 31 30 29 28 28 28 28 28 28 27 26 26 26 26 25 25 24 25 25 25 25 25 25 25 25 25 25 25 25 25 25 25 25 26 26 27 28 28 27
31 31 30 30 30 30 29 28 27 27 27 27 27 27 26 25 25 26 25 24 23 23 23 23 23 23 23 24 24 25 25 25 25 25 26 26 26 26 26 27 27 27 27 27
31 30 30 30 30 29 29 28 27 27 27 26 26 26 25 25 24 23 24 24 24 22 22 23 23 22 23 23 24 25 25 25 25 25 26 26 26 26 26 27 27 27 26 26
30 29 29 30 30 30 29 28 27 26 25 25 24 24 23 23 23 23 23 23 22 22 22 22 23 23 23 23 24 24 24 24 24 25 25 26 26 27 27 27 27 26 26 26
29 28 28 29 29 29 28 27 25 25 24 24 23 22 22 22 22 22 22 22 22 22 21 21 22 23 23 23 24 24 24 24 24 25 26 27 27 27 27 27 27 27 26 26
27 27 27 26 26 26 25 24 24 24 24 23 23 22 22 22 21 21 21 21 20 20 20 20 21 22 22 22 23 24 24 24 24 25 26 27 27 27 27 27 27 27 27 26
25 25 25 25 25 24 24 24 24 23 23 22 22 21 21 21 21 21 20 20 20 20 20 20 21 22 23 22 23 23 24 24 25 25 26 27 27 27 27 26 26 27 27 26
23 23 22 22 23 22 22 22 22 22 21 21 21 21 22 21 21 21 20 21 21 21 21 22 22 23 23 22 23 23 24 24 25 26 26 27 27 27 26 26 27 27 27 27
21 22 21 21 21 20 21 21 21 22 22 22 21 21 21 22 22 22 21 21 21 21 22 22 22 22 22 23 23 23 24 24 25 26 26 26 26 26 26 26 26 26 26 26
19 20 20 20 20 20 20 20 20 20 20 20 20 20 20 20 21 21 21 22 22 22 22 22 22 21 22 22 22 23 24 24 25 25 25 25 25 25 25 25 25 25 25 25
19 19 19 19 19 20 20 20 20 20 19 19 19 19 20 20 20 20 20 21 21 21 21 21 22 22 22 22 23 24 24 24 24 24 24 24 24 24 24 25 25 25 25 25
18 18 17 17 18 19 19 19 19 19 19 19 19 19 19 19 20 20 20 20 20 20 20 20 21 21 22 23 23 23 23 23 23 23 24 24 24 24 24 24 24 24 24 25
17 17 17 17 17 17 17 18 18 18 18 18 18 18 18 18 18 19 19 19 19 20 20 21 21 22 22 23 24 23 23 23 23 23 23 23 23 23 24 24 25 25 26 26
15 16 16 16 16 16 16 16 16 16 16 17 17 17 17 17 17 18 18 18 19 20 20 21 22 22 22 22 22 22 23 23 24 24 23 23 23 24 25 25 25 26 26 26
Wind_Direction
260 263 264 268 270 271 272 276 278 278 279 283 283 283 285 288 289 290 290 292 295 299 302 303 304 304 304 303 302 303 304 303 304 304 304 302 299 297 297 297 297 297 298 297
262 264 265 267 269 270 273 275 277 277 278 279 280 282 282 284 285 287 289 289 291 295 297 299 301 302 302 303 303 303 304 303 303 305 303 301 299 296 295 296 296 296 296 295
264 264 265 264 267 271 273 274 275 277 279 281 281 282 283 281 280 283 286 289 289 290 293 295 295 298 300 301 302 304 303 303 304 305 304 301 299 297 295 295 296 297 297 297
264 266 266 268 267 267 269 271 273 276 278 279 281 280 280 280 280 281 284 286 288 288 290 292 293 296 299 301 301 302 303 303 304 304 304 302 300 299 298 297 297 298 300 298
264 266 269 269 269 269 269 271 274 276 276 275 278 279 281 280 281 281 282 282 284 286 287 289 290 294 298 300 300 302 302 301 301 301 301 300 299 298 298 298 298 299 300 299
262 266 269 271 270 270 272 273 276 277 274 274 276 278 281 281 282 281 280 281 282 283 286 288 290 293 296 300 300 301 301 301 301 300 300 300 299 298 298 298 298 298 298 298
262 264 268 271 271 272 272 275 276 278 277 277 277 279 280 281 282 281 279 277 279 282 284 286 288 293 296 298 299 299 299 299 300 300 300 300 300 300 299 299 299 299 298 298
261 263 266 269 270 270 272 274 277 279 280 279 279 279 280 280 279 279 280 278 279 281 285 288 290 294 296 297 297 297 298 300 300 300 300 299 299 301 301 301 300 299 299 297
260 262 265 267 267 268 270 273 276 278 279 279 280 279 279 280 280 279 282 281 282 285 288 289 292 294 295 297 296 296 296 298 299 299 300 300 300 301 300 300 300 299 299 298
261 261 263 265 266 267 269 271 272 274 276 277 278 280 279 278 279 279 279 281 283 285 286 287 291 293 294 295 297 297 298 298 299 299 300 301 300 301 302 302 302 302 302 302
261 262 262 263 264 265 268 269 269 271 274 275 276 279 283 283 281 278 278 280 281 284 286 288 290 293 293 295 297 297 298 300 301 301 300 300 301 303 304 304 305 306 308 307
260 261 263 263 263 264 266 267 269 271 274 277 279 282 285 284 283 280 280 283 282 283 285 287 290 292 292 294 295 295 297 298 299 301 301 301 302 303 304 305 307 308 309 308
260 261 262 263 263 264 265 267 269 271 274 277 280 281 283 282 281 281 282 282 281 282 284 287 290 290 290 292 293 294 295 297 298 300 301 301 301 302 304 305 307 308 309 309
259 260 261 261 262 263 265 267 269 271 273 276 278 279 280 282 281 281 280 279 280 282 285 287 289 289 289 292 294 294 294 296 297 300 302 303 304 304 304 305 306 307 308 309
258 259 259 259 260 262 264 266 268 270 273 276 277 277 279 281 282 283 283 282 281 283 284 285 286 288 290 292 294 294 295 297 297 299 301 303 305 305 305 306 307 308 308 308
257 257 257 258 258 260 263 264 267 270 272 274 275 276 277 278 280 283 285 287 287 285 284 285 287 289 291 293 294 296 297 298 298 299 300 303 305 306 306 307 308 309 309 310
255 255 256 257 257 259 262 264 267 268 270 272 275 276 278 280 283 285 288 289 287 286 287 289 291 292 294 295 296 298 299 299 300 301 304 305 305 306 307 307 308 309 309 310
254 254 255 257 257 257 260 263 265 266 268 273 277 279 277 279 283 284 285 287 289 289 289 291 293 295 296 298 298 298 299 299 300 302 305 306 306 306 307 307 309 309 309 309
254 253 255 257 258 256 259 261 263 265 266 268 272 274 276 278 281 283 284 288 290 290 290 291 293 295 295 297 298 299 300 300 301 302 303 305 306 306 306 307 307 310 310 309
252 253 254 255 257 259 262 260 259 260 263 266 268 272 274 276 279 282 284 286 289 291 290 291 294 296 295 296 299 300 300 301 302 303 303 304 305 306 306 306 307 309 310 310
253 252 253 254 256 259 260 259 260 261 263 265 266 268 271 273 277 279 281 283 286 289 291 293 294 295 296 296 299 301 301 302 302 303 304 304 304 305 304 305 306 307 308 310
253 251 249 250 253 257 260 262 262 263 265 267 267 268 270 272 275 277 280 283 287 289 291 293 295 297 298 299 299 301 301 301 302 302 303 303 303 304 304 304 306 306 308 309
252 251 251 253 253 256 260 264 265 267 268 267 267 269 271 273 274 275 278 282 286 289 292 293 294 296 298 298 298 299 300 301 301 302 303 304 305 305 304 303 304 306 307 308
252 253 254 255 257 258 259 262 266 270 272 270 269 270 271 273 275 279 283 285 288 291 293 292 292 293 295 297 299 301 302 301 301 302 305 306 307 308 307 306 306 306 305 306
253 254 257 259 259 260 263 265 269 272 274 274 273 272 273 274 276 280 285 288 290 292 294 294 294 295 296 297 299 301 302 304 304 306 307 307 307 306 307 309 310 310 309 308
253 254 256 258 261 262 263 266 269 270 270 272 274 275 275 277 279 282 286 289 292 294 294 295 298 299 299 298 299 299 300 303 305 306 307 306 307 309 310 310 311 311 311 310
253 255 255 255 259 263 266 266 268 269 269 269 270 273 276 280 281 283 285 288 291 294 295 297 301 302 301 300 299 299 301 302 304 305 305 306 308 310 311 312 312 311 310 310
Height
5872 5872 5873 5874 5874 5874 5874 5874 5873 5873 5872 5872 5872 5871 5869 5868 5866 5865 5864 5863 5861 5860 5858 5856 5853 5851 5848 5845 5843 5840 5837 5834 5832 5829 5827 5824 5822 5820 5818 5817 5815 5813 5811 5809
5866 5866 5867 5867 5868 5868 5869 5868 5868 5867 5867 5867 5866 5865 5864 5862 5861 5860 5859 5857 5856 5854 5852 5850 5848 5845 5842 5840 5837 5834 5831 5828 5826 5823 5820 5818 5816 5814 5812 5810 5808 5806 5805 5802
5859 5860 5860 5861 5863 5863 5863 5863 5862 5861 5862 5860 5860 5859 5858 5857 5856 5854 5853 5851 5850 5849 5847 5844 5842 5839 5836 5834 5831 5828 5825 5822 5819 5816 5813 5811 5809 5807 5806 5804 5802 5800 5798 5795
5852 5854 5853 5858 5856 5856 5856 5856 5856 5856 5855 5854 5854 5853 5852 5851 5849 5848 5847 5845 5844 5843 5841 5839 5836 5833 5830 5828 5825 5822 5819 5816 5813 5810 5807 5805 5803 5801 5799 5797 5795 5792 5790 5787
5845 5845 5846 5848 5849 5849 5849 5849 5849 5849 5848 5847 5847 5846 5845 5844 5843 5841 5840 5839 5837 5836 5834 5832 5830 5827 5824 5822 5819 5816 5813 5809 5806 5803 5800 5798 5796 5794 5791 5789 5787 5785 5782 5780
5838 5838 5839 5842 5842 5841 5842 5842 5842 5841 5841 5840 5840 5839 5839 5837 5835 5834 5833 5832 5830 5828 5827 5825 5823 5820 5818 5815 5813 5810 5807 5803 5800 5797 5794 5791 5789 5786 5784 5782 5780 5777 5775 5772
5830 5831 5832 5833 5833 5834 5835 5836 5835 5834 5834 5833 5832 5832 5832 5830 5828 5826 5825 5824 5823 5822 5820 5818 5816 5813 5811 5809 5806 5803 5800 5796 5793 5790 5787 5785 5782 5779 5777 5774 5772 5769 5767 5764
5822 5823 5826 5825 5825 5827 5827 5827 5827 5826 5826 5826 5825 5824 5823 5822 5820 5819 5817 5816 5815 5814 5813 5811 5809 5807 5804 5801 5799 5795 5793 5790 5787 5784 5781 5778 5776 5773 5770 5767 5764 5761 5758 5756
5815 5818 5817 5817 5818 5818 5819 5819 5819 5819 5818 5818 5817 5816 5815 5814 5813 5811 5810 5808 5808 5806 5805 5804 5801 5799 5797 5794 5791 5788 5786 5783 5780 5777 5774 5771 5768 5766 5762 5759 5756 5753 5750 5747
5807 5808 5809 5809 5810 5810 5811 5811 5811 5811 5811 5810 5810 5808 5807 5805 5805 5804 5803 5801 5800 5799 5798 5796 5794 5792 5789 5787 5784 5782 5779 5776 5774 5771 5768 5765 5762 5759 5755 5752 5748 5745 5742 5740
5798 5799 5800 5801 5801 5802 5803 5803 5803 5804 5803 5803 5802 5801 5799 5798 5797 5796 5794 5793 5792 5791 5790 5788 5786 5784 5782 5780 5777 5775 5772 5769 5767 5764 5761 5758 5755 5752 5748 5745 5742 5739 5736 5733
5789 5790 5791 5792 5793 5794 5795 5795 5795 5795 5795 5795 5794 5793 5791 5789 5788 5787 5787 5786 5785 5784 5783 5781 5779 5777 5775 5773 5770 5768 5765 5763 5760 5757 5754 5751 5748 5746 5742 5739 5736 5732 5729 5726
5780 5781 5782 5783 5784 5785 5786 5786 5787 5787 5787 5786 5786 5784 5783 5781 5780 5779 5779 5778 5777 5776 5775 5774 5772 5770 5767 5766 5763 5761 5759 5756 5753 5750 5747 5745 5742 5739 5736 5734 5730 5726 5723 5720
5770 5772 5773 5774 5775 5776 5777 5778 5778 5779 5779 5778 5777 5777 5775 5774 5773 5772 5771 5771 5770 5769 5767 5766 5764 5762 5760 5758 5756 5754 5752 5749 5747 5744 5741 5738 5736 5733 5730 5727 5724 5721 5717 5713
5762 5763 5765 5766 5767 5768 5769 5769 5770 5771 5771 5771 5770 5769 5768 5767 5766 5766 5764 5764 5763 5761 5760 5758 5756 5755 5753 5751 5749 5747 5745 5743 5740 5738 5735 5732 5729 5726 5723 5720 5717 5714 5710 5707
5753 5755 5756 5757 5759 5760 5761 5762 5763 5763 5763 5763 5762 5762 5761 5760 5760 5759 5758 5757 5755 5754 5753 5751 5749 5748 5747 5745 5743 5741 5738 5736 5734 5731 5729 5726 5723 5720 5717 5714 5710 5707 5703 5700
5744 5746 5748 5749 5750 5752 5753 5754 5755 5755 5756 5755 5755 5755 5755 5754 5754 5753 5752 5750 5749 5747 5745 5744 5742 5741 5740 5738 5736 5735 5732 5730 5728 5725 5722 5720 5717 5714 5711 5707 5704 5700 5697 5694
5736 5737 5739 5740 5742 5744 5745 5747 5747 5748 5748 5749 5748 5748 5748 5748 5748 5747 5746 5744 5743 5741 5739 5738 5736 5735 5733 5731 5730 5728 5726 5723 5721 5719 5716 5713 5710 5707 5704 5701 5697 5694 5691 5687
5728 5730 5731 5733 5734 5736 5738 5739 5740 5741 5741 5742 5742 5742 5742 5741 5741 5740 5739 5738 5737 5735 5734 5732 5730 5729 5727 5725 5723 5721 5719 5717 5715 5712 5709 5707 5703 5700 5697 5694 5691 5687 5684 5681
5722 5723 5725 5726 5728 5729 5731 5732 5733 5734 5734 5735 5735 5735 5735 5735 5735 5734 5733 5732 5731 5730 5728 5726 5725 5723 5721 5719 5717 5715 5712 5710 5708 5705 5703 5700 5697 5694 5690 5687 5684 5681 5678 5674
5715 5717 5718 5720 5722 5723 5724 5725 5726 5727 5728 5728 5729 5729 5729 5729 5729 5728 5727 5727 5726 5724 5722 5721 5719 5717 5715 5713 5711 5708 5706 5704 5701 5699 5696 5693 5690 5686 5683 5680 5677 5674 5671 5667
5710 5711 5713 5714 5716 5717 5718 5719 5720 5721 5722 5722 5722 5722 5723 5722 5722 5722 5721 5721 5719 5718 5716 5714 5712 5711 5709 5707 5704 5702 5700 5697 5694 5691 5688 5685 5682 5679 5676 5673 5670 5667 5664 5660
5705 5706 5708 5709 5711 5712 5713 5713 5714 5715 5715 5716 5716 5716 5716 5716 5716 5716 5715 5714 5713 5712 5710 5708 5706 5704 5702 5700 5698 5695 5693 5690 5687 5684 5681 5678 5675 5672 5669 5666 5663 5660 5657 5654
5700 5701 5703 5704 5705 5706 5707 5708 5708 5709 5709 5710 5710 5710 5710 5709 5709 5709 5708 5707 5706 5705 5702 5701 5699 5698 5696 5693 5691 5688 5686 5683 5680 5677 5674 5671 5668 5665 5662 5659 5656 5653 5650 5647
5695 5697 5698 5699 5700 5701 5702 5702 5703 5704 5704 5704 5704 5704 5704 5703 5703 5702 5701 5701 5700 5698 5696 5694 5692 5691 5689 5687 5684 5682 5679 5676 5673 5671 5668 5665 5662 5659 5656 5653 5649 5646 5643 5640
5691 5692 5693 5694 5695 5696 5697 5697 5698 5698 5698 5698 5698 5698 5698 5698 5697 5696 5696 5694 5693 5692 5690 5688 5686 5684 5682 5680 5678 5675 5672 5670 5667 5664 5662 5659 5656 5653 5650 5646 5643 5640 5637 5633
5686 5687 5689 5690 5690 5691 5692 5692 5693 5693 5693 5693 5693 5693 5693 5692 5692 5691 5690 5689 5687 5686 5684 5682 5680 5677 5675 5673 5671 5669 5666 5663 5661 5658 5655 5652 5649 5646 5643 5640 5636 5633 5629 5626